When you browse on this site, cookies collect data to enhance your experience and personalize the content and advertising you see.
Visit our Privacy Policy to learn more. By continuing to use the site, you agree to this use of cookies and data.
  • In Hungary
  • List of Countries
  • For 7 days
  • Water Temperature
  • Satellite Maps
  • Weather Map
  • News
  • Weather Widgets
  • user-avatar
    Login

    Hourly Weather Oksford

    Today, 23 February, Saturday

    Time Temperature Precipitation Wind Pressure Humidity
    00:00 +5°C° 0 mm 3 mps 769 mmHg 85%
    01:00 +5°C° 0 mm 3 mps 769 mmHg 87%
    02:00 +5°C° 0 mm 3 mps 769 mmHg 90%
    03:00 +5°C° 0 mm 3 mps 768 mmHg 92%
    04:00 +5°C° 0 mm 3 mps 768 mmHg 93%
    05:00 +5°C° 0 mm 3 mps 769 mmHg 94%
    06:00 +5°C° 0 mm 2 mps 769 mmHg 95%
    07:00 +5°C° 0 mm 3 mps 769 mmHg 93%
    08:00 +7°C° 0 mm 3 mps 769 mmHg 92%
    09:00 +7°C° 0 mm 4 mps 769 mmHg 90%
    10:00 +10°C° 0 mm 4 mps 769 mmHg 86%
    11:00 +12°C° 0 mm 4 mps 769 mmHg 81%
    12:00 +13°C° 0 mm 4 mps 769 mmHg 77%
    13:00 +14°C° 0 mm 4 mps 769 mmHg 76%
    14:00 +14°C° 0 mm 4 mps 769 mmHg 75%
    15:00 +14°C° 0 mm 4 mps 768 mmHg 74%
    16:00 +13°C° 0 mm 3 mps 768 mmHg 79%
    17:00 +11°C° 0 mm 3 mps 769 mmHg 85%
    18:00 +9°C° 0 mm 2 mps 769 mmHg 90%
    19:00 +9°C° 0 mm 2 mps 769 mmHg 91%
    20:00 +8°C° 0 mm 2 mps 769 mmHg 91%
    21:00 +7°C° 0 mm 2 mps 770 mmHg 92%
    22:00 +8°C° 0 mm 1 mps 770 mmHg 91%
    23:00 +8°C° 0 mm 1 mps 770 mmHg 90%

    Tomorrow, 24 February, Sunday

    Time Temperature Precipitation Wind Pressure Humidity
    00:00 +8°C° 0 mm 1 mps 770 mmHg 89%
    01:00 +8°C° 0 mm 1 mps 770 mmHg 89%
    02:00 +8°C° 0 mm 1 mps 770 mmHg 89%
    03:00 +7°C° 0 mm 1 mps 770 mmHg 89%
    04:00 +7°C° 0 mm 1 mps 770 mmHg 90%
    05:00 +7°C° 0 mm 1 mps 770 mmHg 90%
    06:00 +7°C° 0 mm 1 mps 770 mmHg 91%
    07:00 +6°C° 0 mm 2 mps 770 mmHg 88%
    08:00 +7°C° 0 mm 2 mps 771 mmHg 85%
    09:00 +8°C° 0 mm 2 mps 771 mmHg 82%
    10:00 +9°C° 0 mm 2 mps 771 mmHg 75%
    11:00 +12°C° 0 mm 2 mps 771 mmHg 67%
    12:00 +13°C° 0 mm 2 mps 771 mmHg 59%
    13:00 +14°C° 0 mm 2 mps 771 mmHg 59%
    14:00 +14°C° 0 mm 2 mps 771 mmHg 58%
    15:00 +14°C° 0 mm 2 mps 771 mmHg 57%
    16:00 +13°C° 0 mm 2 mps 771 mmHg 61%
    17:00 +10°C° 0 mm 2 mps 771 mmHg 65%
    18:00 +8°C° 0 mm 2 mps 771 mmHg 69%
    19:00 +7°C° 0 mm 2 mps 771 mmHg 69%
    20:00 +7°C° 0 mm 2 mps 772 mmHg 69%
    21:00 +6°C° 0 mm 2 mps 772 mmHg 69%
    22:00 +5°C° 0 mm 2 mps 772 mmHg 68%
    23:00 +5°C° 0 mm 2 mps 772 mmHg 66%

    Day after tomorrow, 25 February, Monday

    Time Temperature Precipitation Wind Pressure Humidity
    00:00 +5°C° 0 mm 2 mps 772 mmHg 65%
    01:00 +5°C° 0 mm 1 mps 772 mmHg 66%
    02:00 +5°C° 0 mm 1 mps 772 mmHg 68%
    03:00 +5°C° 0 mm 1 mps 772 mmHg 69%
    04:00 +5°C° 0 mm 1 mps 772 mmHg 70%
    05:00 +4°C° 0 mm 2 mps 772 mmHg 70%
    06:00 +4°C° 0 mm 2 mps 772 mmHg 71%
    07:00 +5°C° 0 mm 2 mps 772 mmHg 70%
    08:00 +5°C° 0 mm 3 mps 772 mmHg 68%
    09:00 +7°C° 0 mm 3 mps 772 mmHg 67%
    10:00 +9°C° 0 mm 3 mps 772 mmHg 64%
    11:00 +11°C° 0 mm 3 mps 772 mmHg 60%
    12:00 +13°C° 0 mm 3 mps 772 mmHg 57%
    13:00 +13°C° 0 mm 3 mps 772 mmHg 58%
    14:00 +14°C° 0 mm 3 mps 772 mmHg 58%
    15:00 +14°C° 0 mm 3 mps 771 mmHg 59%
    16:00 +13°C° 0 mm 2 mps 771 mmHg 64%
    17:00 +10°C° 0 mm 2 mps 771 mmHg 69%
    18:00 +9°C° 0 mm 2 mps 771 mmHg 74%
    19:00 +8°C° 0 mm 2 mps 771 mmHg 73%
    20:00 +8°C° 0 mm 2 mps 771 mmHg 73%
    21:00 +7°C° 0 mm 2 mps 771 mmHg 72%
    22:00 +7°C° 0 mm 2 mps 771 mmHg 72%
    23:00 +6°C° 0 mm 2 mps 771 mmHg 72%

    26 February, Tuesday

    Time Temperature Precipitation Wind Pressure Humidity
    00:00 +6°C° 0 mm 2 mps 771 mmHg 72%
    01:00 +6°C° 0 mm 2 mps 770 mmHg 74%
    02:00 +6°C° 0 mm 2 mps 770 mmHg 77%
    03:00 +6°C° 0 mm 2 mps 770 mmHg 79%
    04:00 +6°C° 0 mm 2 mps 770 mmHg 81%
    05:00 +6°C° 0 mm 2 mps 770 mmHg 83%
    06:00 +5°C° 0 mm 2 mps 770 mmHg 85%
    07:00 +7°C° 0 mm 2 mps 770 mmHg 83%
    08:00 +8°C° 0 mm 2 mps 770 mmHg 80%
    09:00 +9°C° 0 mm 2 mps 770 mmHg 78%
    10:00 +10°C° 0 mm 2 mps 770 mmHg 74%
    11:00 +13°C° 0 mm 2 mps 769 mmHg 69%
    12:00 +14°C° 0 mm 3 mps 769 mmHg 65%
    13:00 +14°C° 0 mm 3 mps 769 mmHg 65%
    14:00 +16°C° 0 mm 3 mps 768 mmHg 65%
    15:00 +16°C° 0 mm 3 mps 768 mmHg 64%
    16:00 +14°C° 0 mm 2 mps 768 mmHg 71%
    17:00 +13°C° 0 mm 2 mps 768 mmHg 77%
    18:00 +10°C° 0 mm 2 mps 767 mmHg 83%
    19:00 +9°C° 0 mm 2 mps 767 mmHg 85%
    20:00 +8°C° 0 mm 2 mps 767 mmHg 86%
    21:00 +7°C° 0 mm 2 mps 767 mmHg 88%
    22:00 +7°C° 0 mm 2 mps 767 mmHg 89%
    23:00 +7°C° 0 mm 2 mps 767 mmHg 90%

    27 February, Wednesday

    Time Temperature Precipitation Wind Pressure Humidity
    00:00 +6°C° 0 mm 2 mps 767 mmHg 90%
    01:00 +6°C° 0 mm 2 mps 766 mmHg 91%
    02:00 +6°C° 0 mm 2 mps 766 mmHg 92%
    03:00 +6°C° 0 mm 2 mps 765 mmHg 93%
    04:00 +6°C° 0 mm 2 mps 765 mmHg 93%
    05:00 +6°C° 0 mm 2 mps 765 mmHg 94%
    06:00 +6°C° 0 mm 2 mps 765 mmHg 95%
    07:00 +7°C° 0 mm 2 mps 765 mmHg 94%
    08:00 +8°C° 0 mm 2 mps 765 mmHg 93%
    09:00 +9°C° 0 mm 3 mps 765 mmHg 91%
    10:00 +11°C° 0 mm 3 mps 764 mmHg 85%
    11:00 +12°C° 0 mm 3 mps 764 mmHg 79%
    12:00 +14°C° 0 mm 4 mps 764 mmHg 73%
    13:00 +14°C° 0 mm 4 mps 764 mmHg 71%
    14:00 +15°C° 0 mm 4 mps 763 mmHg 70%
    15:00 +15°C° 0 mm 4 mps 763 mmHg 69%
    16:00 +13°C° 0 mm 4 mps 763 mmHg 76%
    17:00 +12°C° 0 mm 4 mps 762 mmHg 82%
    18:00 +10°C° 0 mm 3 mps 762 mmHg 89%
    19:00 +10°C° 0 mm 3 mps 762 mmHg 91%
    20:00 +8°C° 0 mm 4 mps 762 mmHg 92%
    21:00 +8°C° 0 mm 4 mps 763 mmHg 93%
    22:00 +8°C° 0 mm 4 mps 763 mmHg 94%
    23:00 +7°C° 0 mm 5 mps 763 mmHg 94%

    28 February, Thursday

    Time Temperature Precipitation Wind Pressure Humidity
    00:00 +7°C° 0 mm 5 mps 763 mmHg 94%
    01:00 +8°C° 0 mm 5 mps 763 mmHg 91%
    02:00 +8°C° 0 mm 5 mps 763 mmHg 88%
    03:00 +8°C° 0 mm 6 mps 763 mmHg 84%
    04:00 +7°C° 0 mm 5 mps 763 mmHg 87%
    05:00 +7°C° 0 mm 5 mps 764 mmHg 89%
    06:00 +6°C° 0 mm 5 mps 764 mmHg 91%
    07:00 +6°C° 0 mm 5 mps 765 mmHg 89%
    08:00 +7°C° 0 mm 5 mps 765 mmHg 86%
    09:00 +8°C° 0 mm 6 mps 766 mmHg 83%
    10:00 +9°C° 0 mm 5 mps 766 mmHg 77%
    11:00 +10°C° 0 mm 5 mps 766 mmHg 70%
    12:00 +12°C° 0 mm 5 mps 767 mmHg 64%
    13:00 +13°C° 0 mm 4 mps 766 mmHg 66%
    14:00 +13°C° 0 mm 4 mps 766 mmHg 68%
    15:00 +14°C° 0 mm 4 mps 766 mmHg 70%
    16:00 +12°C° 0 mm 3 mps 766 mmHg 75%
    17:00 +12°C° 0 mm 2 mps 766 mmHg 80%
    18:00 +11°C° 0 mm 1 mps 766 mmHg 86%
    19:00 +10°C° 0 mm 1 mps 766 mmHg 87%
    20:00 +10°C° 0 mm 1 mps 767 mmHg 89%
    21:00 +9°C° 0 mm 1 mps 767 mmHg 90%
    22:00 +9°C° 0 mm 1 mps 767 mmHg 91%
    23:00 +8°C° 0 mm 1 mps 767 mmHg 92%
    Show more